Regional Weather Roundup
Issued by NWS

Home | Current Version | Previous Version | Text Only | Print | Product List | Glossary Off
Versions: 1 2 3 4 5 6 7 8 9 10 11 12 13 14 15 16 17 18 19 20 21 22 23 24 25 26 27 28 29 30 31 32 33 34 35 36 37 38 39 40 41 42 43 44 45 46 47 48 49 50

000
ASUS45 KTFX 030719
RWRMT
MONTANA HOURLY WEATHER ROUNDUP
NATIONAL WEATHER SERVICE GREAT FALLS MT
1219 AM MST TUE MAR 3 2015

NOTE: "FAIR" INDICATES FEW OR NO CLOUDS BELOW 12000 FEET WITH NO
SIGNIFICANT WEATHER AND/OR OBSTRUCTIONS TO VISIBILITY.

* THESE STATIONS ARE NOT UNDER NWS QUALITY CONTROL. THEY DO NOT
   REPORT WEATHER SUCH AS PRECIPITATION OR FOG.

MTZ001>007-043-030800-
WEST OF THE DIVIDE
CITY           SKY/WX    TMP DP  RH WIND       PRES   REMARKS
KALISPELL      CLOUDY    21   3  45 N8G24     30.09R WCI  11
MISSOULA       CLOUDY    21  10  62 SE13      30.05R WCI   8
BUTTE          LGT SNOW  12   3  67 N13G20    29.89R WCI  -3
MULLAN PASS    CLOUDY    10   7  88 VRB3      29.84R
* ANACONDA     MOCLDY    12   5  73 N20G26     N/A   WCI  -6
* ESSEX        N/A       15   0  51 NE4G11     N/A
* EUREKA APT   CLEAR     21   0  40 E7        30.15R WCI  12
* HAMILTON APT CLOUDY    21   9  60 N22       29.97R WCI   5
* LIBBY APT    CLEAR     16  14  92 CALM      30.12R
* LINCOLN      N/A       14   7  73 NE7G18     N/A   WCI   4
* LOOKOUT PASS N/A       16  10  77 SW4G12     N/A
* POLSON       N/A       21   5  50 NE4        N/A
* RONAN APT    MOCLDY    25   5  42 E6         N/A   WCI  18
* SEELEY LAKE  N/A       15   8  74 N3         N/A
* THOMP F APT  PTCLDY    24   9  53 NW4G14     N/A
$$

MTZ008-052>055-030800-
SOUTHWEST MONTANA
CITY           SKY/WX    TMP DP  RH WIND       PRES   REMARKS
BOZEMAN        LGT SNOW  16  10  77 N14G23    29.94R VSB 1 1/2 WCI   2
DILLON         LGT SNOW  14  10  84 NE21      29.84R VSB 1 1/4 WCI  -4
* W YELLOWSTON CLOUDY    18   7  62 N5G10      N/A   WCI  11
* THREE FORKS  CLOUDY    18  10  71 N18G28     N/A   WCI   2
* BOULDER HILL N/A        9   4  80 N15G23     N/A   WCI  -8
* MONIDA PASS  N/A       17  12  81 W12        N/A   WCI   4
* RAYNOLDS PAS N/A        8   7  96 NW27G35    N/A   WCI -14
* WHITEHALL    N/A       16   7  67 NE10G24    N/A   WCI   4
* WISE RIVER   N/A       12   1  61 E14G21     N/A   WCI  -4
$$

MTZ009>010-012-014-046-048-049-054-030800-
EAST SLOPES AND CENTRAL MONTANA
CITY           SKY/WX    TMP DP  RH WIND       PRES   REMARKS
CUT BANK       PTCLDY     5   0  80 N10       30.17R WCI -10
GREAT FALLS    CLOUDY    12   7  80 NE9       30.15R
HELENA         LGT SNOW  18  12  77 N10       30.08R VSB 1 1/4 WCI   6
MALMSTROM AFB  MOCLDY    12   9  88 NE8       30.18R
* CONRAD       PTCLDY    14   7  73 N8         N/A   WCI   3
* DEARBORN     N/A       14  10  84 N/A        N/A
* EAST GLACIER N/A        6   3  87 E16        N/A   WCI -12
* MONARCH      N/A        5   0  80 N13G23     N/A   WCI -12
* PENDROY      N/A        9   5  84 NE11       N/A   WCI  -5
* ROGERS PASS  N/A        5   2  87 S8G17      N/A   WCI  -8
* SWEET GRASS  N/A        5  -7  57 N16        N/A   WCI -14
* WHITE SULPH  N/A       11   6  80 NW12G20    N/A   WCI  -4
$$

MTZ011-013-016-021-035-040-045-047-050-051-030800-
NORTH CENTRAL MONTANA
CITY           SKY/WX    TMP DP  RH WIND       PRES   REMARKS
HAVRE          CLOUDY    10   0  64 N8        30.22R WCI  -2
LEWISTOWN      LGT SNOW  12   9  88 NW10G20   30.05R VSB 3/4  WCI  -1
* N BAR RANCH  HAZE      12   7  80 NW15      29.99F VSB 1 3/4 WCI  -4
* CHINOOK      PTCLDY    10   0  64 NW9       30.23R WCI  -3
* FORT BENTON  PTCLDY    14   0  53 NW8       30.23R WCI   3
* CHESTER      N/A        8  -1  66 NE6G11     N/A   WCI  -2
* DENTON       N/A       13   3  64 NW22G29    N/A   WCI  -6
* GEYSER       N/A       11   2  67 N16G23     N/A   WCI  -6
* JUDITH GAP   N/A       10   9  96 N35        N/A   WCI -14
* LOMA         N/A       14   1  56 NW14       N/A   WCI  -1
$$

MTZ017>020-022>027-061-062-030800-
NORTHEAST MONTANA
CITY           SKY/WX    TMP DP  RH WIND       PRES   REMARKS
GLASGOW        CLOUDY    12   0  58 N22       30.11R WCI  -7
GLENDIVE       CLOUDY    14   7  73 N23G29    30.01R WCI  -5
JORDAN         CLOUDY    16   7  67 N25G35    30.07R WCI  -3
SIDNEY         CLOUDY    12   1  61 NW25G32   30.06R WCI  -8
WOLF POINT     CLOUDY    16   3  56 N16       30.10R WCI   1
* BEAVER HILL  N/A       14   8  77 NW23G30    N/A   WCI  -5
* CIRCLE       N/A       15   6  67 NW13G23    N/A   WCI   1
* LINDSAY DVD  N/A       13   8  80 NW23G31    N/A   WCI  -6
* NAVAJO       N/A        7  -2  66 NW21G29    N/A   WCI -13
* PLENTYWOOD A PTCLDY     7   0  73 NW20G26   30.02R WCI -13
* POPLAR APT   CLOUDY    12   1  61 NW18G31   30.08R WCI  -5
* SACO         N/A       13   3  64 NW19G25    N/A   WCI  -5
$$

MTZ028>042-056>058-030800-
SOUTHCENTRAL AND SOUTHEAST MONTANA
CITY           SKY/WX    TMP DP  RH WIND       PRES   REMARKS
BAKER          CLOUDY    18  10  71 N20G28    29.91R WCI   2
BILLINGS       LGT SNOW  16  10  77 NE12      30.04R VSB 3    WCI   3
LIVINGSTON     LGT SNOW  16  10  77 E17G25    29.95R VSB 1 3/4
MILES CITY     CLOUDY    18   7  62 N26G33    30.02R
* BIG TIMBER A CLOUDY    14   9  80 N15G21    30.01R WCI  -1
* FORSYTH APT  CLOUDY    18   7  62 N14G22    30.05R WCI   4
* LAUREL APT   CLOUDY    16   9  74 N7         N/A   WCI   6
* ROUNDUP APT  CLOUDY    16   7  67 N11G18     N/A   WCI   3
* HYSHAM       N/A       16   9  74 NW4G9      N/A
* LAME DEER    N/A       12  10  92 N18G25     N/A   WCI  -5
* REED POINT   N/A       17  13  84 E4         N/A
$$

REGIONAL REPORTS...DAKOTAS
CITY           SKY/WX    TMP DP  RH WIND       PRES   REMARKS
WILLISTON      CLOUDY    12   5  73 NW22G32   30.00R WCI  -7
DICKINSON      CLOUDY    16   7  67 NW24G36   29.85R WCI  -2
BEACH          LGT SNOW  14  10  84 N23G30    29.94R WCI  -5
CROSBY         MOCLDY     7   1  76 NW22G32   29.99R WCI -14
TIOGA          CLOUDY     9   5  84 NW20G31   29.97R WCI -10
WATFORD CITY   LGT SNOW  14   7  73 N17G28    29.95R WCI  -2
BISMARCK       CLOUDY    19  12  74 N25G37    29.83R WCI   1
GRAND FORKS    CLOUDY    25  18  75 S8        29.74S WCI  16
FARGO          CLOUDY    28  19  69 S22G29    29.74F WCI  14
BUFFALO SD     CLOUDY    18  10  71 N26G35    29.76R
RAPID CITY     LGT SNOW  28  25  89 N28G36    29.71R VSB 1 3/4 WCI  13
$$

REGIONAL REPORTS...WYOMING/IDAHO/WASHINGTON
CITY           SKY/WX    TMP DP  RH WIND       PRES   REMARKS
GILLETTE       SNOW      19  16  88 N29G37    29.78R VSB 1/2
SHERIDAN       SNOW      18  14  84 NW25      29.92R VSB 1/2
CODY           CLOUDY    16  10  77 N17G28    29.86R VSB 3
YELLOWSTONE LA CLOUDY    18  12  77 VRB3      29.65R
SALMON         CLOUDY   N/A N/A N/A NE13      29.77R
MULLAN PASS    CLOUDY    10   7  88 VRB3      29.84S
SAND POINT     CLEAR     30  14  51 NE15G22   30.07R WCI  19
SPOKANE        PTCLDY    27  23  85 N7        30.01R WCI  19
$$

REGIONAL REPORTS...ALBERTA
CITY           SKY/WX    TMP DP  RH WIND       PRES   REMARKS
CALGARY        PTCLDY     7  -4  60 N12       30.22R WCI  -9
LETHBRIDGE     CLEAR      7  -2  66 NW10      30.25R WCI  -7
MEDICINE HAT   MOCLDY     7   1  76 NW7       30.25R WCI  -5
EDMONTON       N/A        3 -11  51 NW10      30.29S WCI -12
WATERTON GATE  N/A        7   3  83 E9         N/A   WCI  -6
CARDSTON       N/A        7   5  91 S1         N/A
MILK RIVER     N/A        0  -6  75 N8         N/A   WCI -14
$$

REGIONAL REPORTS...SASKATCHEWAN
CITY           SKY/WX    TMP DP  RH WIND       PRES   REMARKS
SWIFT CURRENT  CLEAR      1  -4  79 NW15G21   30.08R WCI -18
REGINA         SNOW       1  -6  72 NW18      30.01R WCI -20
VAL MARIE      N/A        7   0  73 N13G18     N/A   WCI  -9
ASSINIBOIA     N/A        3   0  87 W9         N/A   WCI -11
CORONACH       N/A        5   0  80 NW17G24    N/A   WCI -14

$$




USA.gov is the U.S. government's official web portal to all federal, state and local government web resources and services.